Republic Airport
KFRG : now visible

Airfield :











YOU CAN JOIN US ON...

 
LOGIN :

Register | Disclaimer

   EN    FR    IT 

 









Legend :    VFR   Marginal VFR   IFR   Intensive IFR   Very Intensive IFR
Visi :
Ceiling :
>= 8 km
>= 3000ft
5 to 8 km
1000 to 3000 ft
1500m to 5 km
500 to 1000 ft
800 to 1500m
200 to 500 ft
< 800m
< 200 ft
Symbols :   Thunderstorms  Fog  Heavy snow  Heavy precipitations  Wind > 20 kt






- Airport Elevation : 82 ft


KFRG - Republic

CURRENT METAR :
  • 291253Z 34009G18KT 10SM OVC037 01/M09 A3005 RMK AO2 SLP176 T00061089

EXPIRED METARs :
  • 291153Z 35011KT 10SM OVC038 01/M09 A3002 RMK AO2 SLP165 T00061089 10028 20006 53019
  • 291053Z AUTO 34010KT 10SM OVC039 01/M08 A2999 RMK AO2 SLP155 T00061083

TAF N/A



MET'MAP, your aeronautical weather chart ! - Copyright ORBIFLY December 2007 - Disclaimer

ORBIFLY MET'MAP TEAM :

Programming & Development : Alexandra Zaïnal
Concept & original design : Baudouin d'Aumeries
Assistance for programming : Marc-Olivier Méhu
Technical & hardware support : Manuel Goepfert

Contact : metmap@orbifly.com




SOURCES & CREDITS :

   NOAA       Earth
Advisory